sat.trackr.live / text

‹ back to catalog

KUIPER-00139

NORAD 65765 · 2025-217D

PAYLOAD ACTIVE UNKNOWN

§ Identity

Operator
Country
US
Launch date
2025-09-25
Launch site
AFETR
Launch vehicle
Mass (kg)
RCS (m²)

External: N2YO · Heavens-Above · Gunter

§ Orbital elements

Epoch: 2026-05-25T03:36:52.215840Z

Period
95.85 min
Inclination
51.8843°
Eccentricity
0.0007520
Mean motion
15.02295863 rev/d
Perigee alt
554.6 km
Apogee alt
565.0 km
Semi-major
6,938.0 km
B*
-2.1975e-3
RAAN
43.6042°
Arg perigee
195.6337°
Mean anomaly
164.4404°
Rev number
3,650

§ Raw data

KUIPER-001391 65765U 25217D   26145.15060435 -.00029520  00000+0 -21975-2 0  99932 65765  51.8843  43.6042 0007520 195.6337 164.4404 15.02295863 36505

JSON: /api/v1/satellites/65765 · /tle

For live sub-satellite position, see the globe view (requires WebGL).

§ Visibility from observer

Set your observer location to see the next 7 days of passes ≥ 10°. The values pass through the URL so the page stays shareable.

No JS? Fill the form by hand. The geolocation button needs JavaScript.